Location: Champs
(48.8539°N, 2.6040°E)
Time: 22:39:10
(UTC+00:00)

Cosmos 1953 - Pass Details

Date: 30 May 2022
Orbit: 533 x 555 km, 82.5° (Epoch: 01 July)

Event Time Altitude Azimuth Distance (km) Brightness Sun altitude
Rises 00:56:39 0° 337° (NNW) 2,724 6.7 -17.7°
Reaches altitude 10° 00:59:15 10° 320° (NW) 1,820 5.4 -17.6°
Maximum altitude 01:02:10 20° 273° (W) 1,304 4.1 -17.4°
Enters shadow 01:02:55 19° 258° (WSW) 1,342 4.0 -17.4°
